Location: Blériot-Plage
(50.9575°N, 1.8224°E)
Time: 20:54:59
(UTC+00:00)

SAR-Lupe-2 - Pass Details

Date: 15 May 2026
Orbit: 415 x 427 km, 98.1° (Epoch: 7 June)

Event Time Altitude Azimuth Distance (km) Brightness Sun altitude
Exits shadow 21:50:17 - 83° (E) 1,769 6.2 -15.3°
Enters shadow 22:47:27 -70° 167° (SSE) 12,404 10.7 -18.7°
Maximum altitude 23:23:35 89° 77° (ENE) 445 3.2 -19.8°
